Regional Weather Roundup
Issued by NWS

Home | Current Version | Previous Version | Text Only | Print | Product List | Glossary Off
Versions: 1 2 3 4 5 6 7 8 9 10 11 12 13 14 15 16 17 18 19 20 21 22 23 24 25 26 27 28 29 30 31 32 33 34 35 36 37 38 39 40 41 42 43 44 45 46 47 48 49 50

000
ASUS44 KMEG 202100
RWRTN
TENNESSEE HOURLY STATE WEATHER ROUNDUP
NATIONAL WEATHER SERVICE MEMPHIS TN
400 PM CDT WED SEP 20 2017

TNZ002-004-019-021-049-052-054-088>092-202200-
WEST TENNESSEE

CITY           SKY/WX    TMP DP  RH WIND       PRES   REMARKS
MEMPHIS INTL   PTSUNNY   90  72  55 SW9       29.95F HX  97
NWS MEMPHIS      N/A     90 N/A N/A MISG        N/A
JACKSON        MOSUNNY   91  71  51 SW8       29.96F HX  97
DYERSBURG      PTSUNNY   91  73  55 VRB7      29.95F HX  99
$$

TNZ008-025-027-028-033-062-065-066-202200-
NORTH MIDDLE TENNESSEE

CITY           SKY/WX    TMP DP  RH WIND       PRES   REMARKS
NASHVILLE      PTSUNNY   87  70  56 E8        29.99F HX  92
CLARKSVILLE    SUNNY     89  69  51 SW7       29.97F HX  93
SMYRNA         MOSUNNY   88  70  55 S6        30.00F HX  92
CROSSVILLE     CLOUDY    80  66  62 SE7       30.07S
$$

TNZ061-075-076-078-094-096-097-202200-
SOUTH MIDDLE TENNESSEE

CITY           SKY/WX    TMP DP  RH WIND       PRES   REMARKS
MCMINNVILLE    SUNNY     90  72  55 CALM      30.02S HX  96
$$

TNZ017-018-042-046-047-202200-
NORTHEAST TENNESSEE

CITY           SKY/WX    TMP DP  RH WIND       PRES   REMARKS
TRI CITIES     MOSUNNY   84  61  45 MISG      30.04F
$$

TNZ012-013-036-069-073-074-202200-
CENTRAL EAST TENNESSEE

CITY           SKY/WX    TMP DP  RH WIND       PRES   REMARKS
KNOXVILLE      MOSUNNY   86  63  45 CALM      30.01F
OAK RIDGE      SUNNY     84  66  54 VRB3      30.03F
GATLINBURG     MOSUNNY   88  61  40 SW5       30.01F
$$

TNZ083-085-099-202200-
SOUTHEAST TENNESSEE

CITY           SKY/WX    TMP DP  RH WIND       PRES   REMARKS
CHATTANOOGA    MOSUNNY   88  65  46 CALM      30.01F HX  90
$$

SKY/WX REPORTED AS FAIR MEANS FEW OR NO CLOUDS BELOW
12 THOUSAND FEET.





USA.gov is the U.S. government's official web portal to all federal, state and local government web resources and services.